Wind_Speed
22 20 20 20 21 21 22 22 23 23 24 23 25 26 23 24 26 28 28 26 22 20 20 21 23 23 21 20 19 19 19 19 19 18 18 18 17 17 17 16 16 16 16 16 16 16 17 17 17 17 18 19 19 20 20 20 20 19 19 19 19 18 17 14 13 15 15 14 15 14 14 14 14 15 15 16 16 17 17 18 18 17 17 16 17
28 25 23 22 22 23 23 21 22 24 22 22 26 26 25 25 24 25 25 24 21 20 21 23 24 23 21 21 20 20 20 19 18 18 17 17 17 17 16 16 16 17 17 17 17 18 17 18 17 17 18 19 18 19 20 19 19 19 18 18 18 18 17 13 12 15 16 15 16 16 16 16 16 16 17 17 18 18 19 19 19 18 17 18 18
31 30 28 25 23 24 24 22 22 22 21 22 25 25 26 22 19 22 22 21 20 21 23 23 23 23 22 21 21 20 19 18 17 17 17 17 17 17 17 17 17 17 18 18 19 19 18 17 17 18 19 18 18 18 19 18 18 17 17 16 17 18 17 13 13 16 18 17 18 18 18 19 18 18 19 19 19 20 20 20 19 19 19 20 20
32 30 29 26 25 26 26 23 21 21 20 20 20 21 23 20 20 21 20 20 21 21 22 22 22 22 22 22 20 19 18 17 17 16 16 17 18 18 18 17 17 18 18 18 19 20 19 18 18 19 19 18 18 18 18 17 17 17 16 16 17 18 17 15 15 17 19 20 20 20 20 20 20 20 20 20 20 20 21 21 20 20 21 22 23
30 29 28 27 26 26 26 25 23 21 20 19 19 19 21 23 23 21 20 20 21 20 20 20 21 22 22 21 19 18 17 17 17 17 18 18 19 19 18 18 17 17 17 17 19 20 21 20 20 20 19 19 19 19 18 17 18 17 17 17 18 19 19 18 18 18 20 22 22 21 22 22 22 22 22 22 22 22 22 22 22 22 23 23 24
27 27 27 26 24 25 24 24 23 21 19 20 22 23 24 24 22 21 20 20 19 19 20 20 21 21 22 21 19 18 17 17 18 19 19 19 19 19 18 18 18 18 18 18 19 20 22 22 22 20 20 21 21 21 19 19 19 19 19 19 20 21 21 21 20 19 21 23 23 23 24 24 24 24 24 24 24 24 24 24 24 24 24 25 25
24 24 23 21 20 20 21 22 21 18 19 23 24 25 25 23 23 22 21 20 19 19 20 20 21 22 22 22 20 19 19 19 20 20 20 20 20 20 20 20 20 21 22 22 21 21 22 23 23 22 23 22 21 21 21 20 20 20 21 21 20 22 23 23 22 21 21 22 24 25 25 25 26 27 27 26 26 26 27 27 27 26 27 26 26
24 24 22 19 18 17 17 19 18 18 22 27 27 27 26 25 24 22 20 20 20 20 20 21 22 23 24 23 21 21 21 21 21 21 21 21 21 21 21 21 23 24 24 24 23 22 21 23 24 24 24 23 22 22 22 21 21 21 22 22 21 22 24 24 24 24 23 23 24 25 26 26 28 29 29 29 29 28 29 29 28 28 29 29 28
22 22 19 17 16 16 16 18 20 22 26 27 25 25 25 23 22 20 20 21 20 21 22 22 23 23 22 21 21 22 23 22 22 22 22 23 22 21 20 21 21 22 23 23 23 21 21 22 24 24 24 23 23 23 23 23 23 22 23 24 23 23 24 24 25 25 25 25 25 25 27 27 28 29 30 31 31 31 31 31 30 30 30 31 31
17 18 16 15 15 15 15 18 22 24 24 22 20 22 23 21 21 21 21 21 21 21 21 20 20 20 20 20 22 23 23 24 24 24 24 23 23 22 21 20 20 21 22 23 23 21 20 21 22 23 24 25 24 25 25 25 25 25 25 26 25 24 24 25 25 26 26 27 27 27 28 29 29 30 30 31 32 33 34 33 32 32 34 34 34
15 16 15 15 16 16 15 16 18 20 21 18 17 19 20 19 20 20 20 19 19 19 19 18 18 19 20 22 22 23 24 25 26 25 25 25 25 25 25 23 22 22 22 23 23 21 20 20 21 22 24 24 24 25 25 25 26 26 26 26 25 25 25 26 26 27 27 28 29 30 30 31 32 33 32 33 34 35 36 35 35 36 37 37 35
16 16 16 15 16 16 16 16 17 18 19 17 16 16 16 16 17 18 18 18 18 18 18 19 20 21 22 22 23 24 25 25 26 26 26 26 27 27 27 26 25 24 22 22 22 21 20 20 20 21 21 22 22 22 23 23 24 24 25 26 26 26 26 27 27 28 28 29 30 32 32 33 34 35 35 36 37 37 38 38 38 39 39 39 38
17 17 17 17 16 16 17 17 18 19 20 20 18 16 15 16 17 17 18 18 18 19 20 21 21 22 23 23 24 24 24 25 26 27 27 27 27 28 28 28 27 25 22 21 20 20 19 20 20 20 20 20 20 19 20 21 22 23 24 26 27 27 27 28 28 29 30 30 31 33 34 35 36 36 37 38 39 39 40 40 40 41 42 42 42
19 18 18 18 18 18 18 18 19 21 21 21 19 18 18 18 18 18 18 19 20 21 21 22 22 23 23 24 24 25 27 28 27 25 24 24 25 27 28 29 27 25 22 20 20 20 20 20 20 19 19 19 19 19 20 22 23 24 25 26 27 28 28 29 30 30 31 32 33 35 36 37 38 38 39 40 40 41 42 42 43 44 44 44 45
19 18 18 19 20 20 20 20 21 23 23 22 21 21 21 21 20 20 20 20 21 22 22 22 22 22 21 21 21 22 24 25 24 21 19 19 21 23 26 28 27 25 22 21 20 21 21 21 20 19 18 19 20 21 22 23 24 25 26 27 28 29 30 31 31 32 33 34 35 36 37 38 39 40 41 41 42 43 43 44 45 46 46 46 47
20 17 16 17 17 18 19 21 22 24 24 23 21 22 21 21 21 22 21 21 20 20 21 21 21 20 18 17 17 18 18 19 20 19 18 18 18 20 22 23 23 22 21 21 22 23 22 21 21 20 21 22 23 24 25 25 26 27 28 29 30 31 32 33 33 34 35 36 36 37 38 38 39 41 42 43 44 45 45 46 47 47 48 49 50
22 22 21 19 17 16 17 19 20 22 24 24 23 23 23 24 25 25 24 24 22 22 22 22 22 20 18 17 17 17 17 18 19 19 19 19 19 18 17 18 19 20 22 23 24 24 24 24 24 24 24 24 25 26 27 27 28 29 30 31 32 33 34 35 35 36 36 37 37 38 39 40 41 42 43 44 46 47 47 47 48 49 50 52 52
24 25 26 26 24 23 22 21 20 21 22 24 25 26 27 28 28 27 27 27 25 24 25 25 24 22 20 19 19 20 20 20 20 20 20 19 18 17 16 17 20 23 25 26 25 25 26 26 26 26 25 26 27 28 29 30 31 32 33 34 35 36 37 38 38 38 38 38 39 40 42 43 44 45 46 46 47 49 50 50 51 52 53 54 55
25 26 28 30 29 29 29 28 28 27 26 26 27 27 29 29 28 28 28 27 25 24 25 25 25 23 22 21 21 21 22 22 21 21 20 19 18 17 17 19 22 25 26 26 26 26 27 27 27 28 28 28 29 30 32 34 35 36 37 38 39 40 40 41 41 41 42 42 42 43 44 45 46 47 48 49 50 52 53 53 54 56 56 57 57
27 29 31 32 29 28 28 29 31 31 31 31 30 30 30 29 27 26 26 26 25 25 25 25 25 24 23 23 22 22 23 23 22 21 20 20 20 20 21 23 25 26 26 27 27 27 28 28 29 30 31 32 33 34 36 37 38 39 40 41 42 43 43 44 45 46 46 47 47 47 48 48 49 50 51 52 54 55 56 56 57 58 58 58 59
25 29 31 32 30 29 30 31 32 32 32 32 32 31 30 29 28 28 28 28 28 28 28 27 26 25 26 25 24 24 25 25 24 23 23 23 23 23 24 25 26 27 27 29 29 28 28 29 30 31 33 35 36 38 39 39 40 41 43 44 45 46 47 48 49 49 50 50 51 51 51 52 52 53 54 55 56 57 58 58 59 61 62 62 62
19 22 25 27 27 27 28 28 28 28 28 28 29 29 29 29 29 30 30 30 30 29 29 28 28 27 27 27 27 27 27 27 27 27 27 26 26 26 26 26 27 27 28 30 31 31 30 31 33 34 36 37 39 40 41 42 43 44 45 46 47 49 50 50 51 52 53 53 54 54 55 55 56 56 57 57 59 60 60 60 60 62 63 63 63
19 19 20 21 20 21 22 22 22 23 24 25 26 28 29 30 31 31 31 31 30 30 29 29 29 28 28 29 29 29 29 30 30 30 29 29 28 28 27 27 28 29 30 32 34 34 34 35 36 38 39 40 41 42 43 45 46 48 49 49 50 51 52 52 53 54 54 55 56 56 57 58 59 59 59 60 61 62 62 62 62 64 65 65 65
23 22 22 21 21 21 21 22 22 23 25 25 27 29 30 30 31 31 31 30 30 30 30 30 30 30 30 30 30 31 31 31 31 32 32 32 32 31 30 30 30 31 33 34 35 37 37 38 40 41 42 43 43 44 45 47 48 49 50 51 51 52 53 53 54 55 55 56 57 58 59 60 61 61 62 62 63 65 66 66 67 68 68 69 69
26 26 25 25 25 24 23 23 23 24 25 26 27 28 29 30 31 32 32 31 31 31 32 32 32 32 32 32 32 32 32 33 33 34 35 35 35 35 35 34 34 35 36 37 38 39 40 41 42 43 44 45 45 46 47 48 48 49 50 51 52 53 54 55 55 56 57 58 60 61 62 63 64 66 66 67 68 69 70 70 71 72 72 73 73
29 29 28 28 27 27 25 25 24 24 24 25 26 28 29 30 31 32 32 33 33 33 34 34 34 35 35 35 35 34 34 35 36 37 37 37 38 38 38 38 38 39 40 40 41 42 42 43 43 43 44 45 46 47 48 49 50 50 51 52 54 55 56 57 58 60 61 62 64 65 66 67 69 70 71 71 72 72 73 73 73 74 75 75 75
29 29 29 29 28 27 27 27 26 27 27 27 28 28 29 31 32 33 33 34 34 35 36 36 36 37 37 38 37 36 36 37 38 39 39 39 39 40 40 41 41 41 42 42 43 43 43 44 44 45 45 46 47 48 49 50 52 53 54 55 57 58 59 61 62 64 65 66 68 69 70 71 72 73 74 74 74 74 72 72 72 72 72 72 71
31 30 30 30 29 28 27 27 28 29 30 30 30 30 31 32 33 34 34 35 36 37 37 38 39 39 40 40 40 39 38 39 40 40 41 41 41 42 42 42 42 42 43 44 44 44 44 45 46 47 48 49 50 51 52 53 55 57 58 60 61 63 64 66 67 68 69 70 71 71 71 72 72 73 73 73 73 72 70 68 67 66 66 65 65
37 35 33 31 29 28 28 29 30 31 32 32 33 33 34 34 35 35 36 37 38 39 39 40 40 40 40 40 40 40 40 41 41 41 41 41 41 41 41 41 42 43 44 45 45 46 46 47 48 49 51 52 53 55 56 58 59 61 62 64 65 67 68 69 70 71 72 72 72 71 71 70 70 69 68 66 66 65 64 62 61 60 59 59 59
36 37 36 34 33 33 33 33 34 35 35 36 36 36 36 37 37 37 38 38 38 39 39 39 38 38 39 39 39 40 41 41 40 40 40 40 40 40 41 42 43 44 45 45 46 48 49 50 51 52 54 55 56 58 59 60 61 63 65 66 68 69 70 71 71 71 71 70 70 69 69 68 67 64 62 61 60 59 58 57 56 55 55 55 55
34 33 33 33 33 33 33 33 33 33 34 34 34 34 34 34 35 36 36 36 37 37 37 37 38 38 38 39 39 39 39 40 40 40 41 41 41 42 43 44 45 46 47 48 49 50 51 52 53 55 56 57 58 60 61 62 64 65 67 68 69 70 70 70 69 68 67 67 65 64 63 62 61 60 59 58 57 56 55 55 54 53 53 53 53
35 33 32 31 31 31 31 31 32 32 32 32 33 33 33 33 34 34 35 35 36 36 37 37 38 38 38 38 38 38 39 39 40 41 42 43 43 44 46 47 48 48 49 50 51 52 53 54 55 56 57 59 60 62 63 64 65 66 67 67 67 68 67 66 65 64 63 62 61 60 58 58 57 57 56 56 56 55 55 55 55 54 54 54 53
37 36 35 35 35 35 35 34 34 34 34 35 35 36 36 36 37 37 37 38 38 39 39 39 39 38 38 38 38 39 39 40 42 43 44 45 46 47 48 48 49 49 50 51 52 53 54 55 56 57 59 60 61 63 64 64 65 65 65 65 64 64 63 62 61 60 59 59 58 57 57 56 56 55 55 55 56 56 56 56 56 55 55 54 53
36 36 36 35 35 36 37 36 36 37 37 38 38 39 40 40 40 41 41 40 40 40 39 39 38 38 39 40 41 42 42 43 45 46 46 47 47 48 48 49 49 50 51 52 53 54 55 56 57 58 60 61 62 62 63 63 63 63 62 62 62 61 60 59 58 57 56 55 55 55 55 54 54 55 55 55 55 55 55 55 54 54 53 53 52
36 35 35 34 35 36 37 37 37 38 39 39 40 40 41 41 40 40 40 40 40 40 40 40 40 41 42 43 44 44 44 45 45 46 46 46 47 47 48 48 49 50 51 52 53 54 55 56 57 58 58 59 60 60 60 60 60 59 58 57 56 55 54 54 53 53 53 53 53 53 53 53 54 54 54 53 53 52 52 51 50 49 49 48 48
39 38 37 36 35 35 36 36 36 37 38 39 39 39 39 39 39 39 39 40 40 40 40 41 41 41 42 42 42 43 43 43 44 44 45 45 46 47 47 48 48 49 50 51 52 53 53 54 54 55 55 56 56 56 56 55 55 54 53 51 51 50 50 50 51 51 51 52 52 53 53 53 52 51 50 49 48 47 45 44 43 42 42 43 44
40 40 39 38 37 36 36 36 36 36 36 36 37 37 38 39 39 39 39 40 40 40 40 40 40 40 41 41 41 41 41 42 42 43 44 44 45 45 46 46 46 47 48 49 49 50 50 51 51 52 52 52 52 52 51 50 49 48 48 48 48 48 49 50 50 51 51 52 53 52 51 49 48 46 45 43 41 39 37 36 36 37 39 41 41
40 39 39 38 38 37 37 37 36 36 36 36 36 36 37 38 38 38 38 39 39 39 38 39 39 40 40 40 40 40 40 41 41 42 42 43 43 43 44 44 45 46 46 47 48 48 49 49 49 49 49 48 48 47 46 46 46 46 46 47 48 48 49 50 50 51 52 52 51 48 46 44 43 41 38 35 33 32 32 32 33 35 36 36 34
39 39 38 38 38 38 38 38 38 38 37 37 37 38 38 39 39 39 39 39 39 38 38 38 39 39 39 39 40 40 40 41 41 41 42 42 42 43 43 43 44 44 45 45 46 46 46 45 45 45 44 44 44 43 44 44 45 46 46 47 48 49 50 50 51 51 49 47 45 44 42 40 36 33 30 30 30 30 30 30 30 29 27 25 23
42 41 41 41 40 40 40 40 40 40 40 41 41 41 41 41 40 40 39 39 39 38 38 38 38 38 38 39 39 39 39 39 39 39 40 40 40 40 40 41 41 41 41 41 42 42 41 41 42 42 42 42 42 43 43 44 45 46 47 48 49 49 49 48 47 45 43 42 42 41 37 32 28 27 27 28 29 28 27 25 23 20 17 15 13
47 46 46 46 45 44 44 43 43 43 43 43 43 42 41 40 40 39 38 38 38 38 38 38 38 37 37 37 37 36 36 36 36 36 36 37 37 37 37 37 38 38 38 39 39 39 40 40 40 41 41 42 43 43 44 45 46 47 48 48 47 46 44 42 40 39 40 40 38 34 28 25 24 25 25 25 25 24 22 21 19 17 15 14 12
47 46 46 46 45 44 44 43 43 42 41 41 41 40 39 39 38 37 37 37 37 36 36 36 36 35 35 35 35 35 34 34 34 34 34 34 35 35 35 36 36 37 37 38 38 38 39 39 40 40 41 42 43 44 45 46 46 46 45 43 41 38 36 35 36 38 39 36 30 25 22 22 23 24 24 23 21 20 19 19 18 17 16 16 14
44 43 42 42 42 42 41 41 40 39 39 39 39 38 38 37 37 36 36 36 35 34 34 34 34 34 34 33 33 33 33 33 33 33 33 33 34 34 34 35 35 35 36 36 37 37 38 39 40 41 42 43 44 44 44 43 41 40 38 36 33 31 31 33 36 36 33 28 23 21 22 22 23 23 23 21 20 19 19 18 18 18 17 17 16
41 40 39 38 38 38 38 38 37 38 38 37 37 37 36 36 36 36 35 35 34 33 33 33 32 32 31 31 31 31 31 31 31 32 32 32 32 32 32 33 33 33 34 35 36 37 39 40 42 42 43 42 41 40 38 37 35 34 32 29 28 28 30 33 34 32 27 22 21 22 23 23 23 23 22 20 19 19 19 19 18 17 16 16 16
36 36 36 36 36 36 36 36 36 37 36 36 36 36 36 35 35 35 34 33 33 32 31 31 31 30 30 30 30 29 30 29 29 29 29 29 29 29 30 30 31 32 34 36 37 39 40 41 41 40 38 36 35 34 33 32 30 28 26 26 26 27 29 30 29 26 23 21 21 22 22 22 22 23 21 19 18 17 16 15 15 15 15 15 15
33 34 34 35 36 35 35 35 36 36 36 36 36 35 35 35 34 33 33 32 31 30 30 30 30 30 29 28 28 27 27 27 26 26 26 27 27 27 28 30 31 33 35 36 37 38 37 36 35 33 32 31 30 30 29 28 26 24 23 24 25 26 27 27 25 22 21 21 21 21 20 20 19 19 19 17 17 16 13 11 11 11 12 13 14
30 31 33 34 35 35 35 35 35 35 35 35 35 34 33 33 32 31 30 29 29 29 29 28 28 28 27 26 25 24 24 24 24 24 24 25 26 27 28 30 32 33 34 34 34 32 30 29 28 28 28 27 27 27 26 25 23 22 22 23 24 25 25 25 23 20 20 20 20 19 19 19 19 18 18 17 16 15 13 12 11 12 12 13 14
28 29 30 31 33 33 33 33 33 33 33 32 32 32 31 30 29 28 27 27 27 26 26 26 25 24 23 23 22 22 22 22 22 23 23 24 26 27 29 30 32 32 32 31 28 26 25 24 24 24 24 25 25 25 25 24 23 22 22 23 23 23 23 23 22 20 19 19 19 19 18 17 17 17 17 16 15 14 13 13 13 13 13 13 14
26 27 27 28 29 30 30 30 31 30 30 30 30 29 28 28 27 26 25 24 24 24 23 23 22 22 21 21 21 21 21 21 22 22 23 25 26 28 29 30 31 31 29 27 25 24 23 22 22 22 22 22 23 23 24 23 23 22 22 23 23 22 21 21 21 19 18 18 18 17 15 14 13 13 13 13 13 13 12 12 12 13 13 13 13
25 25 26 26 26 27 27 28 28 27 27 27 27 26 26 25 24 23 22 22 22 22 22 22 22 21 21 21 21 21 21 21 21 22 24 25 26 27 28 29 30 29 28 26 24 23 22 21 21 21 21 21 21 22 23 23 23 23 23 22 22 21 20 20 20 19 18 18 17 16 15 14 14 13 14 14 14 13 12 11 12 12 12 12 12
23 24 24 24 24 25 25 25 25 25 25 25 24 24 23 22 21 21 21 22 22 23 23 22 22 22 22 22 21 21 21 21 21 22 23 24 24 26 27 28 28 28 27 25 24 23 22 21 21 21 21 21 21 21 21 22 23 23 23 22 21 20 19 19 19 19 18 18 18 18 18 18 18 18 18 18 17 15 13 12 12 12 12 12 12
Wind_Direction
267 266 264 262 262 261 262 267 269 272 273 269 273 272 251 230 225 224 231 239 235 230 230 231 233 236 240 241 240 241 242 245 248 248 249 251 253 256 258 258 258 258 258 260 262 264 266 268 270 270 269 269 270 270 269 268 267 266 266 265 267 268 265 265 271 273 271 270 271 273 274 275 277 279 281 282 283 283 283 284 284 285 285 286 288
269 267 263 260 260 260 261 266 268 270 267 266 274 261 225 212 220 225 232 234 224 224 230 232 233 234 236 236 237 241 243 245 246 245 246 247 249 253 256 258 260 260 260 261 260 262 264 266 268 268 268 268 268 267 268 268 268 267 266 265 267 268 268 268 269 269 269 271 273 275 275 274 275 276 277 278 278 279 280 280 282 282 283 283 283
269 268 266 262 260 258 258 261 265 266 263 265 269 245 211 209 227 230 229 223 218 228 235 234 231 229 230 233 235 238 240 243 245 245 246 246 247 250 252 255 257 259 260 260 260 261 262 262 264 265 267 268 267 266 267 269 268 268 268 267 267 270 272 271 267 268 270 271 272 274 274 274 274 274 274 275 275 276 276 277 279 280 281 280 280
271 266 264 260 258 255 253 257 261 259 257 258 253 230 217 230 241 231 223 219 224 234 233 227 224 224 227 231 234 236 237 239 243 245 246 247 248 248 248 251 253 256 258 258 259 260 260 260 261 263 265 266 266 265 265 267 268 270 270 269 270 272 273 272 269 269 271 272 272 273 273 273 273 273 273 273 274 274 274 276 277 277 278 279 281
271 264 263 260 256 250 249 255 258 255 253 247 234 229 240 250 243 226 220 224 228 228 221 217 220 223 225 228 230 235 237 238 242 246 249 250 251 250 249 248 250 254 257 258 260 259 258 257 258 262 265 266 266 266 264 265 267 269 271 271 272 274 274 274 274 273 274 274 275 275 275 275 274 273 272 272 273 274 275 276 277 278 279 280 282
268 262 257 251 249 248 248 253 257 254 246 234 231 240 249 246 233 219 218 222 222 218 216 217 220 222 223 225 228 232 237 242 246 249 251 252 252 251 250 249 251 257 263 265 264 261 259 258 258 260 263 264 265 265 265 265 266 269 271 272 275 276 276 277 277 276 276 278 279 278 277 277 276 275 275 275 276 277 278 279 279 279 280 281 282
257 252 247 241 241 243 246 252 255 248 235 228 234 243 240 229 222 218 217 220 221 219 217 218 221 223 224 226 230 233 238 243 247 250 251 252 252 251 250 251 257 264 268 269 268 266 263 261 259 257 258 261 262 263 264 266 267 268 270 271 274 276 277 279 279 277 276 276 278 278 278 278 279 279 280 280 281 282 282 282 282 282 282 282 282
248 245 243 240 235 239 249 252 243 231 231 234 235 233 226 218 216 216 217 221 222 220 220 221 223 224 226 230 235 239 242 244 248 251 252 251 252 253 254 257 260 264 267 268 267 267 265 262 260 258 259 262 263 263 265 267 268 269 270 272 274 275 277 279 279 278 276 274 275 277 279 280 281 281 283 285 285 284 283 283 283 283 283 284 282
243 236 234 232 230 238 244 234 222 222 229 231 226 218 214 210 209 213 221 224 222 220 222 225 226 228 232 236 240 244 247 249 251 252 252 252 252 254 258 260 260 262 263 263 263 263 262 261 262 262 262 263 264 266 268 270 272 273 274 276 276 275 276 278 279 279 279 278 277 278 280 282 281 283 285 287 287 285 283 283 282 281 283 284 284
233 223 224 224 224 232 232 222 224 227 222 216 212 208 206 205 206 215 224 225 223 225 228 230 232 235 238 240 243 246 249 252 253 253 253 253 252 254 258 260 260 259 259 259 259 258 257 260 263 263 263 264 266 269 271 274 276 277 277 278 278 276 276 276 277 278 280 281 282 283 284 283 283 284 285 285 285 285 285 284 283 284 285 284 284
223 217 221 220 219 223 224 223 224 215 204 203 208 207 206 208 211 217 222 223 226 230 234 236 238 239 242 243 245 248 250 253 254 254 253 253 252 254 257 260 260 259 259 259 259 257 257 260 262 263 264 266 268 272 275 278 280 280 280 280 280 278 277 277 278 279 281 282 284 286 286 285 285 285 285 284 284 285 285 286 286 287 287 286 285
217 217 218 217 219 220 221 223 218 207 205 211 213 210 212 213 214 218 223 226 231 235 239 241 242 244 247 248 249 250 250 252 254 255 254 252 251 252 254 256 256 257 259 258 258 260 262 265 267 268 269 271 273 275 278 280 282 281 280 280 279 278 278 278 279 281 283 283 284 285 285 285 284 284 284 284 283 283 284 286 287 287 287 285 285
222 220 219 221 226 226 224 223 218 213 215 217 215 216 219 217 218 223 228 232 237 241 244 246 248 251 252 254 254 252 251 251 254 256 255 253 251 251 252 252 252 254 255 254 256 261 265 268 269 270 271 272 273 275 276 277 278 278 278 278 278 278 278 278 279 281 282 283 283 283 284 283 283 283 283 284 284 284 284 285 285 285 285 285 286
229 226 226 229 231 231 228 225 222 221 219 217 219 224 224 224 227 231 234 239 242 244 247 250 252 254 256 258 260 257 254 253 253 254 254 253 253 252 251 251 251 250 248 248 254 260 263 264 263 263 266 268 270 271 272 273 273 274 275 275 275 276 276 278 279 281 282 283 283 283 283 284 284 284 284 284 284 283 283 284 285 284 284 284 285
231 227 231 233 229 228 227 224 225 225 221 220 225 229 229 233 235 236 239 244 246 247 249 252 255 257 258 260 262 260 256 252 248 247 248 252 254 252 250 250 250 247 245 249 256 261 262 261 258 258 263 266 268 270 270 271 271 271 272 273 274 276 278 279 280 281 281 281 281 282 283 283 283 283 283 283 283 283 283 283 283 284 284 285 285
232 228 231 231 223 222 224 222 222 224 222 223 228 231 233 240 242 242 243 247 250 252 252 253 255 257 257 257 256 255 250 245 243 243 247 252 254 249 244 243 243 242 244 252 259 262 261 258 255 257 262 264 266 268 269 271 272 273 274 275 276 278 278 278 278 279 279 280 281 282 282 281 281 280 281 281 282 282 283 283 283 284 284 285 285
236 232 230 228 222 221 224 223 222 223 224 225 228 232 238 244 246 246 247 250 254 254 253 253 253 255 255 253 250 249 246 243 245 248 251 252 251 246 238 234 235 239 246 253 257 257 256 253 253 257 261 265 268 270 271 272 273 274 275 275 276 277 278 278 280 281 282 283 283 283 282 281 281 281 282 282 283 283 283 284 284 283 283 285 285
241 238 234 232 231 230 229 227 226 227 229 231 233 236 240 245 247 249 252 255 255 253 252 252 252 254 254 250 249 250 249 248 249 250 250 249 248 246 241 238 239 243 248 252 253 253 252 253 256 260 265 269 272 273 273 273 273 274 275 276 278 280 281 283 284 284 284 283 282 282 282 282 282 282 282 282 282 282 283 284 283 283 283 285 286
248 245 237 232 232 234 234 232 231 231 233 236 238 239 241 246 249 250 251 252 251 250 250 251 252 253 253 251 251 251 250 250 249 247 245 244 245 246 245 244 245 247 250 253 254 255 256 258 261 265 268 271 272 271 272 273 275 277 278 280 281 283 284 285 285 284 284 283 282 281 280 280 281 281 282 283 282 282 282 283 283 284 285 286 287
246 246 238 228 228 235 236 235 235 235 235 237 239 241 243 246 247 245 243 245 248 251 252 251 250 251 252 253 253 253 251 249 247 245 244 244 246 247 248 248 250 252 254 256 255 256 260 264 266 268 270 271 271 272 273 276 278 280 281 282 283 284 285 285 284 284 284 283 282 281 280 280 280 281 282 282 282 282 282 282 282 283 283 284 285
234 237 234 229 230 236 237 235 236 235 235 236 239 239 240 242 243 243 245 249 252 253 252 249 249 251 253 254 255 256 254 251 248 246 246 247 249 250 250 252 256 257 259 260 260 259 264 269 271 271 272 273 274 276 278 279 281 282 283 283 284 284 284 284 284 284 284 283 283 283 282 282 281 281 281 281 281 281 281 281 281 281 281 281 281
239 234 232 232 234 237 238 236 234 233 233 235 238 240 242 245 247 249 252 255 255 253 250 248 248 250 252 254 255 256 255 253 250 248 248 249 252 253 254 257 261 264 266 268 269 268 269 273 275 275 275 277 278 280 281 281 282 282 283 283 283 283 283 283 283 283 284 283 283 283 282 282 282 281 281 281 281 280 280 280 281 281 282 282 281
252 243 239 238 237 236 237 238 239 241 242 243 244 246 249 250 251 252 252 252 251 250 250 250 250 251 252 255 256 257 257 257 255 254 253 253 253 255 257 259 263 267 271 274 276 275 274 275 277 278 279 280 280 281 282 282 283 283 283 283 283 283 283 282 282 282 282 282 282 282 282 282 281 281 281 281 281 281 281 281 281 281 282 282 282
259 253 250 248 246 244 245 246 247 249 250 250 250 251 252 252 252 252 251 250 249 250 251 253 255 256 257 258 259 259 259 259 258 259 258 257 256 256 257 260 264 270 275 278 278 278 278 278 278 279 280 281 281 281 281 282 282 282 283 283 283 283 283 282 282 282 282 282 282 282 282 282 281 281 281 281 281 281 281 281 281 281 281 282 282
259 256 254 253 252 251 250 251 251 252 252 253 252 252 253 252 250 249 249 249 250 252 255 257 259 260 261 261 261 261 261 259 258 259 259 259 259 258 258 261 266 272 277 278 278 278 279 279 279 280 280 280 281 281 281 282 282 282 282 282 282 282 282 282 282 282 282 283 283 282 283 283 282 282 282 281 281 281 281 281 281 281 281 281 281
258 255 253 252 253 254 253 253 254 255 256 255 253 252 252 251 251 250 251 252 255 257 260 262 263 263 263 262 261 262 262 261 260 259 260 260 260 260 261 264 269 274 278 280 280 280 281 281 281 281 281 281 281 282 282 283 283 283 283 283 283 283 283 283 283 283 283 284 284 284 284 283 283 282 282 282 281 281 281 282 282 281 281 281 281
255 254 254 253 253 253 254 255 255 255 256 256 255 254 252 252 252 253 255 257 260 261 262 263 264 264 263 262 262 261 261 261 262 262 262 262 263 263 263 266 271 276 279 280 281 281 281 281 282 282 282 282 282 282 282 283 283 283 283 283 283 283 283 284 284 284 284 284 284 284 283 283 283 283 282 282 282 282 282 282 281 281 281 281 281
235 242 249 253 254 255 256 257 258 258 258 259 259 258 257 256 257 258 260 261 262 262 262 262 262 262 261 261 262 262 262 263 264 265 265 265 265 266 267 270 274 277 279 280 280 281 281 282 282 282 282 282 282 282 283 283 283 283 284 284 284 284 284 284 284 284 284 284 284 284 284 284 284 283 283 284 283 283 283 282 282 282 282 281 281
222 226 232 238 242 245 247 249 250 252 253 255 255 256 256 257 258 259 260 261 262 262 263 264 264 264 264 265 265 265 264 264 265 265 266 266 267 269 272 274 277 278 278 279 279 280 281 281 282 282 283 283 283 283 283 283 284 284 284 283 283 283 283 283 283 283 283 284 284 284 284 284 284 285 286 286 286 286 285 284 284 283 282 282 281
222 222 224 227 229 231 232 234 237 240 242 246 248 250 252 254 255 256 257 258 260 261 262 263 264 264 263 264 264 264 264 265 266 268 269 271 272 274 275 276 277 277 278 279 279 280 280 281 281 282 282 282 282 282 282 282 282 282 282 282 282 282 282 283 283 284 285 285 285 286 286 286 287 287 288 288 287 287 287 286 285 284 283 282 282
231 229 228 228 228 229 231 233 236 239 242 244 246 248 250 252 254 255 255 255 255 255 255 256 257 258 259 261 263 264 266 268 270 272 274 275 276 276 277 277 277 278 279 279 280 280 281 281 281 281 281 281 282 281 281 281 281 281 281 282 283 283 283 284 285 286 287 287 287 288 289 289 289 289 289 289 288 288 288 287 286 284 283 281 280
238 236 234 234 235 237 241 244 246 248 249 250 251 252 252 253 254 254 254 255 255 256 257 258 260 263 265 267 269 270 271 272 273 273 274 275 276 276 277 278 278 279 279 280 280 281 281 281 281 281 282 282 282 281 281 281 282 282 283 283 284 285 286 287 287 288 288 289 289 290 290 290 290 290 290 290 289 288 288 287 286 284 283 281 280
240 239 240 241 243 245 247 249 251 253 254 255 255 255 256 256 257 258 259 261 263 264 266 267 268 269 270 271 272 273 274 274 274 275 276 276 277 278 279 279 280 280 281 281 282 282 282 282 282 282 282 282 282 282 282 283 283 284 285 285 286 287 288 289 289 289 290 290 290 291 291 291 291 291 290 290 289 289 288 287 286 285 284 283 281
242 241 242 243 244 245 245 245 246 248 250 251 252 253 255 257 259 262 263 265 266 268 269 270 271 272 272 273 274 275 275 276 276 276 277 278 278 279 279 280 280 281 281 281 282 282 282 282 282 282 282 283 283 283 284 285 285 286 287 287 288 288 289 289 290 290 290 291 291 292 292 292 291 291 291 290 290 289 288 288 287 286 286 285 283
245 245 244 243 243 245 246 248 248 249 249 250 252 254 256 258 260 261 263 265 266 268 269 270 271 273 274 274 275 275 276 276 277 277 277 278 278 278 278 279 280 280 280 281 281 281 281 282 282 283 283 284 284 285 285 286 287 287 288 288 289 289 290 291 292 292 293 294 294 294 294 294 293 292 292 291 290 289 288 288 288 288 288 286 285
252 253 253 251 250 250 251 252 252 251 252 254 256 258 260 262 263 265 267 268 270 271 272 273 274 274 274 274 274 275 275 276 276 276 276 277 277 277 278 278 279 279 279 280 280 281 281 282 283 284 284 285 286 287 287 288 288 289 289 290 291 292 293 294 295 296 297 297 297 297 297 296 295 294 293 292 291 290 289 289 289 289 288 287 285
258 260 261 261 261 260 260 259 259 258 258 259 261 263 265 266 268 270 272 274 275 275 277 278 277 276 276 276 276 276 275 275 275 275 275 276 277 277 278 279 280 280 281 282 283 284 284 285 286 286 287 288 288 289 289 290 290 291 292 293 295 296 297 298 298 299 299 300 300 300 299 298 297 296 295 293 291 291 290 290 290 289 289 288 286
264 264 265 265 265 265 265 265 265 265 265 266 266 267 269 270 272 273 275 276 276 276 277 277 276 276 276 277 277 277 277 277 277 277 279 280 281 281 282 283 284 284 285 286 286 287 287 288 288 288 288 288 289 290 290 291 293 294 295 297 298 298 299 300 301 302 302 302 302 301 301 300 299 298 296 294 292 292 291 291 291 291 292 291 287
265 265 265 265 266 266 266 266 267 267 268 268 269 271 274 275 277 278 278 278 277 278 278 276 274 275 276 276 276 277 278 278 279 280 281 282 282 283 283 284 285 285 286 286 287 287 288 288 288 288 289 289 290 292 293 294 295 297 298 299 299 300 301 302 303 303 303 303 303 303 302 301 299 297 295 295 294 293 292 291 292 295 297 296 291
266 267 267 268 268 268 268 269 269 270 271 272 274 276 277 277 278 278 278 277 277 277 276 275 275 275 275 275 276 277 277 278 279 280 280 281 281 282 283 284 285 286 286 287 287 287 288 288 289 290 291 292 293 294 295 296 297 298 299 300 301 302 302 303 303 303 303 304 305 304 302 299 296 296 297 298 298 296 291 287 289 295 301 303 298
269 270 270 271 271 272 272 272 273 274 275 276 277 277 277 276 276 276 275 274 274 274 274 274 275 275 275 275 276 276 277 277 278 279 280 281 282 283 284 284 285 285 286 286 286 287 288 289 290 291 293 294 295 296 297 298 298 299 300 300 301 302 303 303 304 305 307 308 306 303 299 296 296 298 299 299 299 296 289 283 283 288 294 296 294
271 271 272 272 272 273 273 274 275 275 275 275 275 274 274 274 273 272 272 271 272 273 273 274 274 275 275 276 276 276 277 278 278 279 280 281 282 282 283 283 284 284 285 286 287 288 290 291 292 294 295 296 297 298 298 299 299 300 300 301 302 303 304 305 308 310 311 309 305 300 298 299 302 305 304 301 297 294 289 283 279 279 282 285 284
270 270 270 271 271 272 272 273 273 273 272 272 272 272 272 271 271 271 271 271 272 272 273 273 274 274 275 275 275 276 277 278 278 279 280 280 281 281 282 283 284 286 287 289 290 292 294 295 296 297 298 298 299 299 299 299 300 301 302 303 304 306 308 310 312 314 312 308 303 302 304 306 309 312 311 306 299 293 289 286 282 279 280 281 282
267 267 267 267 267 267 268 269 268 268 268 268 268 268 268 268 268 268 269 270 270 271 271 271 272 273 273 274 274 275 276 276 277 278 279 280 281 283 284 286 288 290 292 294 296 297 298 298 299 299 299 299 300 300 300 301 302 303 304 305 307 309 311 314 315 315 312 308 305 306 309 311 313 312 308 305 301 297 293 289 287 286 287 288 288
262 262 262 262 261 261 262 262 262 262 262 263 263 263 264 264 265 266 266 267 267 267 267 267 269 269 270 271 272 273 274 275 277 278 280 282 284 286 288 291 293 296 297 299 299 299 299 299 299 299 300 300 300 301 301 302 303 304 304 306 308 310 313 315 315 313 311 310 310 308 306 307 310 309 304 300 299 299 298 297 294 290 289 290 289
255 256 256 257 257 256 256 257 257 258 258 259 260 260 261 262 262 263 263 263 263 263 263 264 265 266 267 268 270 272 275 277 279 281 284 286 288 290 293 295 297 299 300 300 300 300 299 299 299 299 300 300 301 301 301 302 303 302 302 305 307 309 312 315 313 309 308 312 313 308 302 298 301 306 306 301 293 290 293 298 298 292 289 289 288
252 251 251 252 254 254 253 254 255 256 256 257 257 258 258 259 259 259 259 259 259 259 260 261 262 264 266 268 271 274 277 280 282 284 286 288 291 293 295 297 298 300 301 301 301 300 300 300 300 300 301 301 302 302 302 301 301 300 301 303 305 307 311 314 312 306 304 308 311 309 303 298 296 299 303 302 296 290 286 285 288 289 289 289 286
253 252 252 252 253 254 253 253 254 254 255 255 255 255 255 255 255 254 254 254 255 256 258 259 261 264 267 271 274 277 279 281 283 285 287 290 292 294 296 299 302 304 305 305 305 304 303 303 303 303 304 304 303 302 301 299 299 298 298 301 304 305 308 312 312 305 300 303 307 307 306 304 302 301 300 300 297 292 286 283 285 286 286 285 283
255 254 253 253 254 254 254 254 254 254 254 254 254 253 252 252 251 251 251 252 253 254 256 258 261 265 268 271 274 276 278 279 281 284 288 291 293 297 301 306 309 311 311 311 310 309 308 308 308 308 308 307 306 303 300 297 296 295 294 297 301 303 306 309 311 306 300 298 302 304 303 303 306 310 314 313 304 293 284 282 283 284 285 284 282
257 255 254 254 254 254 254 254 254 253 253 252 251 250 250 249 248 247 248 248 250 251 253 256 259 263 266 269 272 274 275 277 280 285 288 292 296 302 307 312 315 316 316 316 314 313 313 313 313 313 313 312 310 306 301 297 293 292 291 293 296 300 302 305 307 307 302 296 293 293 295 295 298 306 317 323 319 307 291 282 280 281 282 281 278
258 256 254 253 253 253 253 252 252 252 250 249 248 247 246 245 244 244 244 245 246 248 250 253 257 260 264 266 268 270 272 276 280 285 289 294 300 307 313 317 320 321 321 320 319 317 317 316 316 316 316 315 313 311 306 300 294 291 290 290 292 296 298 300 303 306 305 300 293 288 286 288 291 295 302 311 316 314 304 290 281 279 278 276 273
Height
5741 5742 5742 5743 5744 5745 5747 5748 5750 5751 5752 5752 5751 5750 5751 5754 5758 5760 5763 5765 5766 5767 5768 5770 5771 5773 5774 5775 5776 5777 5778 5779 5780 5781 5781 5782 5782 5783 5784 5785 5786 5786 5786 5787 5788 5789 5789 5790 5791 5791 5791 5791 5791 5790 5790 5791 5791 5792 5793 5793 5793 5792 5793 5795 5796 5795 5795 5796 5796 5796 5796 5796 5796 5796 5796 5796 5796 5796 5796 5796 5796 5795 5795 5795 5794
5737 5738 5739 5740 5741 5742 5743 5745 5746 5748 5749 5748 5747 5747 5749 5752 5755 5758 5760 5762 5763 5764 5766 5767 5769 5771 5772 5773 5774 5774 5775 5776 5777 5778 5779 5780 5781 5781 5782 5783 5784 5784 5784 5785 5786 5786 5787 5787 5788 5789 5789 5789 5789 5788 5788 5789 5790 5790 5791 5791 5791 5790 5791 5793 5794 5793 5793 5794 5794 5794 5794 5794 5794 5794 5794 5794 5794 5793 5793 5793 5793 5793 5793 5792 5792
5734 5736 5737 5738 5739 5740 5740 5742 5743 5744 5745 5745 5744 5745 5748 5751 5753 5756 5758 5759 5761 5762 5763 5765 5767 5768 5770 5770 5771 5772 5773 5774 5775 5776 5777 5778 5779 5780 5781 5781 5782 5782 5782 5783 5783 5784 5784 5785 5786 5786 5786 5787 5787 5786 5786 5787 5787 5788 5788 5789 5788 5788 5789 5791 5792 5791 5790 5791 5791 5791 5791 5791 5791 5792 5791 5791 5791 5791 5790 5790 5790 5790 5790 5789 5789
5732 5733 5734 5735 5737 5737 5738 5739 5740 5741 5742 5742 5743 5744 5748 5750 5752 5753 5755 5757 5759 5760 5761 5762 5764 5766 5767 5768 5768 5770 5771 5772 5773 5774 5775 5776 5777 5778 5778 5779 5779 5780 5781 5781 5782 5782 5782 5783 5783 5783 5783 5784 5784 5784 5784 5785 5785 5785 5786 5786 5786 5786 5787 5789 5789 5789 5788 5788 5789 5789 5789 5789 5789 5789 5789 5789 5788 5788 5788 5787 5787 5787 5787 5786 5786
5727 5728 5730 5731 5733 5733 5735 5737 5738 5738 5739 5740 5741 5744 5746 5748 5749 5751 5753 5755 5756 5757 5759 5760 5762 5764 5765 5765 5766 5767 5769 5770 5771 5772 5773 5774 5775 5775 5776 5777 5777 5778 5778 5779 5780 5779 5780 5780 5780 5780 5781 5782 5782 5782 5782 5783 5783 5783 5784 5784 5784 5784 5785 5786 5787 5786 5786 5786 5786 5786 5786 5786 5786 5786 5786 5785 5785 5785 5785 5784 5784 5784 5784 5783 5782
5723 5724 5726 5727 5728 5729 5732 5734 5734 5735 5736 5737 5740 5742 5744 5745 5747 5749 5751 5752 5754 5755 5756 5758 5760 5761 5762 5763 5764 5765 5767 5768 5769 5770 5771 5772 5773 5773 5774 5774 5775 5775 5776 5777 5777 5777 5777 5777 5778 5779 5779 5779 5779 5779 5780 5781 5781 5781 5782 5781 5781 5781 5782 5783 5784 5784 5783 5783 5783 5783 5783 5783 5783 5782 5782 5782 5782 5781 5781 5781 5781 5781 5780 5780 5779
5721 5721 5722 5724 5726 5727 5729 5730 5732 5733 5734 5735 5738 5740 5741 5743 5744 5746 5748 5749 5751 5752 5754 5756 5757 5759 5760 5761 5762 5764 5765 5766 5766 5768 5769 5769 5770 5771 5771 5772 5772 5772 5773 5774 5774 5775 5775 5775 5775 5776 5776 5776 5777 5777 5778 5778 5778 5779 5779 5780 5780 5779 5779 5780 5780 5781 5781 5780 5780 5779 5779 5779 5779 5779 5778 5778 5778 5778 5777 5776 5777 5776 5776 5776 5776
5719 5719 5719 5721 5724 5726 5727 5728 5730 5732 5733 5733 5735 5737 5738 5740 5742 5744 5746 5747 5748 5750 5752 5753 5755 5756 5757 5759 5761 5762 5762 5763 5764 5765 5766 5767 5767 5768 5769 5769 5770 5770 5770 5771 5771 5772 5773 5772 5772 5773 5774 5774 5775 5775 5775 5776 5776 5776 5776 5777 5778 5777 5776 5777 5777 5777 5778 5777 5777 5776 5776 5776 5775 5775 5774 5774 5774 5774 5773 5773 5773 5772 5772 5772 5773
5716 5718 5718 5720 5723 5724 5725 5727 5728 5730 5732 5733 5733 5734 5736 5737 5739 5741 5743 5745 5747 5749 5750 5751 5753 5754 5756 5758 5759 5759 5760 5761 5761 5762 5763 5764 5765 5765 5766 5766 5767 5767 5767 5767 5768 5769 5770 5769 5770 5771 5771 5772 5772 5772 5773 5773 5773 5773 5773 5774 5775 5775 5773 5773 5774 5774 5774 5774 5774 5773 5773 5772 5772 5771 5771 5770 5770 5770 5769 5769 5769 5768 5768 5768 5768
5715 5716 5717 5719 5721 5722 5724 5726 5727 5727 5730 5732 5732 5733 5734 5736 5737 5739 5741 5743 5746 5747 5748 5750 5752 5753 5755 5756 5756 5756 5757 5758 5758 5759 5760 5761 5762 5763 5763 5763 5764 5764 5765 5764 5765 5766 5766 5767 5767 5768 5769 5769 5770 5770 5770 5771 5771 5771 5771 5771 5771 5771 5771 5770 5770 5770 5770 5770 5770 5770 5769 5769 5768 5768 5767 5766 5765 5765 5765 5765 5765 5764 5764 5763 5764
5713 5714 5715 5717 5719 5721 5722 5725 5726 5726 5728 5730 5731 5732 5733 5735 5737 5739 5741 5743 5744 5746 5747 5749 5750 5751 5752 5752 5753 5754 5754 5755 5755 5756 5757 5758 5759 5759 5760 5761 5761 5762 5762 5762 5762 5763 5763 5764 5765 5765 5766 5766 5767 5767 5767 5767 5768 5768 5768 5767 5768 5768 5768 5767 5767 5767 5767 5766 5766 5765 5765 5765 5764 5764 5763 5762 5761 5760 5760 5761 5760 5759 5759 5759 5759
5712 5714 5715 5717 5718 5720 5721 5723 5724 5726 5727 5728 5730 5731 5733 5735 5737 5738 5739 5741 5742 5744 5745 5746 5747 5748 5749 5749 5750 5750 5751 5752 5752 5753 5753 5754 5755 5756 5756 5757 5758 5759 5759 5760 5760 5760 5761 5761 5762 5762 5763 5763 5763 5764 5764 5764 5764 5765 5764 5764 5764 5764 5764 5764 5764 5763 5763 5762 5762 5761 5761 5761 5760 5759 5759 5759 5758 5757 5757 5756 5756 5755 5754 5754 5754
5710 5712 5714 5716 5717 5718 5719 5721 5723 5725 5726 5727 5729 5731 5732 5734 5735 5736 5737 5739 5740 5741 5742 5743 5744 5745 5745 5746 5746 5747 5748 5749 5749 5750 5750 5751 5751 5752 5753 5754 5755 5756 5757 5757 5757 5758 5758 5759 5759 5760 5760 5760 5761 5761 5761 5761 5761 5761 5761 5761 5761 5760 5760 5760 5760 5759 5759 5758 5758 5757 5756 5756 5755 5755 5755 5754 5753 5753 5752 5752 5752 5751 5750 5750 5749
5709 5710 5712 5713 5714 5716 5718 5720 5722 5723 5725 5726 5728 5729 5731 5732 5733 5734 5735 5736 5737 5738 5739 5741 5741 5742 5742 5742 5743 5744 5744 5745 5746 5747 5747 5748 5748 5749 5750 5750 5752 5753 5754 5755 5755 5755 5756 5756 5756 5757 5757 5758 5758 5758 5758 5758 5758 5758 5758 5758 5757 5757 5756 5756 5756 5755 5755 5754 5753 5752 5751 5751 5751 5750 5749 5749 5748 5748 5747 5747 5746 5746 5745 5745 5745
5707 5708 5710 5711 5713 5715 5716 5718 5720 5722 5723 5725 5726 5727 5728 5730 5731 5731 5732 5734 5735 5736 5737 5737 5738 5738 5739 5739 5740 5740 5740 5741 5743 5744 5744 5745 5745 5745 5746 5747 5749 5750 5751 5752 5752 5752 5753 5753 5753 5754 5755 5755 5755 5755 5755 5755 5755 5755 5754 5754 5754 5753 5753 5752 5752 5751 5751 5750 5749 5748 5748 5747 5747 5746 5744 5744 5743 5742 5742 5741 5740 5739 5739 5739 5739
5705 5707 5708 5710 5711 5713 5714 5716 5718 5719 5721 5723 5724 5724 5725 5727 5728 5728 5729 5731 5732 5732 5733 5734 5734 5735 5735 5736 5737 5737 5738 5739 5740 5741 5742 5742 5742 5742 5743 5744 5745 5747 5748 5749 5749 5749 5750 5750 5750 5751 5751 5751 5751 5751 5751 5751 5751 5751 5751 5750 5750 5749 5749 5748 5748 5747 5746 5746 5745 5745 5744 5743 5742 5741 5739 5738 5737 5736 5735 5735 5734 5733 5732 5731 5731
5703 5705 5707 5708 5709 5711 5712 5713 5715 5717 5718 5720 5721 5722 5723 5724 5724 5725 5726 5727 5728 5729 5730 5731 5731 5732 5733 5734 5734 5735 5736 5736 5737 5738 5739 5739 5739 5740 5740 5741 5743 5744 5745 5745 5746 5746 5746 5746 5746 5747 5747 5747 5747 5747 5747 5747 5747 5747 5746 5746 5745 5745 5744 5744 5743 5743 5742 5741 5741 5740 5739 5738 5737 5736 5734 5733 5732 5731 5730 5729 5728 5727 5725 5724 5724
5701 5702 5704 5706 5707 5709 5710 5711 5713 5714 5715 5716 5718 5720 5721 5720 5721 5722 5723 5724 5725 5726 5727 5728 5728 5729 5730 5731 5732 5733 5733 5734 5735 5735 5736 5736 5736 5737 5738 5739 5740 5740 5741 5741 5742 5742 5742 5742 5743 5743 5743 5743 5743 5743 5743 5742 5742 5742 5741 5741 5740 5739 5739 5739 5739 5738 5737 5737 5736 5734 5733 5732 5731 5731 5729 5728 5727 5725 5724 5723 5722 5720 5719 5718 5717
5698 5700 5702 5703 5704 5706 5707 5709 5710 5711 5713 5714 5715 5717 5718 5718 5719 5719 5720 5720 5722 5723 5724 5725 5725 5726 5727 5728 5729 5730 5730 5731 5731 5732 5732 5733 5733 5734 5735 5736 5736 5736 5736 5737 5738 5739 5739 5739 5740 5740 5740 5740 5739 5739 5738 5737 5737 5736 5736 5736 5735 5735 5734 5734 5734 5733 5732 5731 5731 5730 5729 5727 5726 5725 5724 5723 5721 5719 5718 5717 5715 5713 5712 5712 5711
5695 5696 5698 5700 5701 5703 5704 5706 5708 5708 5710 5711 5712 5714 5714 5715 5715 5716 5716 5717 5718 5719 5720 5721 5722 5723 5724 5724 5726 5726 5727 5728 5728 5729 5729 5730 5730 5731 5732 5732 5732 5732 5733 5733 5734 5735 5736 5736 5736 5736 5735 5735 5734 5733 5733 5732 5732 5732 5731 5731 5730 5730 5729 5728 5727 5727 5726 5725 5724 5723 5722 5721 5721 5720 5719 5718 5715 5713 5711 5710 5708 5707 5706 5705 5704
5692 5693 5694 5696 5698 5700 5701 5703 5704 5705 5706 5708 5709 5710 5710 5711 5712 5712 5713 5714 5715 5716 5717 5718 5719 5719 5720 5721 5722 5723 5723 5724 5725 5726 5726 5727 5727 5727 5728 5728 5728 5728 5729 5729 5729 5731 5733 5732 5731 5731 5730 5730 5729 5728 5728 5728 5727 5726 5726 5725 5724 5724 5723 5722 5720 5720 5719 5718 5717 5716 5715 5714 5713 5713 5712 5711 5708 5706 5704 5703 5701 5699 5698 5697 5696
5690 5691 5692 5694 5695 5696 5697 5699 5700 5701 5702 5704 5705 5705 5706 5707 5708 5709 5709 5710 5711 5712 5713 5714 5715 5716 5716 5717 5718 5719 5719 5720 5721 5722 5722 5723 5723 5723 5724 5724 5724 5724 5725 5724 5725 5727 5729 5728 5726 5726 5725 5725 5724 5723 5723 5722 5721 5720 5719 5718 5718 5717 5716 5715 5714 5713 5712 5711 5709 5708 5707 5706 5704 5704 5703 5702 5699 5697 5696 5695 5692 5689 5687 5687 5687
5688 5688 5689 5691 5693 5694 5695 5696 5696 5697 5699 5701 5701 5701 5702 5703 5704 5704 5705 5706 5707 5708 5709 5710 5711 5712 5713 5713 5714 5715 5716 5716 5716 5717 5718 5719 5719 5719 5720 5720 5720 5720 5720 5720 5720 5721 5722 5722 5721 5720 5720 5719 5719 5718 5717 5716 5715 5714 5713 5712 5711 5710 5709 5708 5707 5706 5705 5703 5702 5700 5699 5697 5695 5694 5694 5693 5690 5688 5686 5685 5683 5681 5678 5676 5676
5685 5686 5687 5688 5690 5691 5691 5692 5693 5694 5695 5697 5698 5698 5699 5700 5700 5700 5701 5702 5703 5704 5705 5706 5707 5708 5709 5710 5710 5711 5712 5712 5712 5713 5714 5714 5715 5715 5715 5716 5716 5716 5716 5716 5716 5716 5716 5716 5715 5715 5714 5713 5712 5711 5711 5710 5709 5707 5706 5705 5703 5702 5701 5700 5700 5698 5697 5696 5694 5692 5690 5688 5686 5685 5684 5684 5682 5679 5677 5676 5674 5672 5670 5667 5666
5682 5683 5684 5685 5686 5687 5688 5689 5689 5690 5691 5693 5694 5694 5695 5696 5696 5697 5697 5698 5699 5700 5701 5702 5703 5704 5705 5706 5706 5706 5707 5708 5707 5708 5709 5710 5710 5710 5710 5711 5711 5712 5712 5712 5711 5711 5710 5710 5710 5709 5708 5707 5706 5705 5704 5703 5702 5701 5700 5698 5697 5696 5694 5693 5692 5690 5689 5687 5685 5683 5681 5679 5677 5675 5674 5673 5671 5670 5668 5666 5663 5662 5660 5658 5656
5678 5679 5680 5681 5682 5683 5684 5684 5685 5686 5687 5688 5689 5690 5691 5692 5692 5693 5693 5694 5695 5696 5697 5698 5698 5699 5700 5701 5701 5703 5703 5702 5702 5703 5704 5704 5704 5705 5705 5705 5705 5706 5706 5705 5705 5704 5704 5703 5703 5702 5702 5701 5700 5698 5697 5696 5695 5693 5692 5691 5689 5688 5687 5685 5684 5682 5680 5678 5676 5674 5672 5669 5667 5664 5663 5662 5660 5659 5657 5655 5653 5650 5648 5646 5645
5674 5675 5676 5677 5678 5678 5679 5680 5681 5682 5683 5684 5685 5686 5687 5687 5688 5689 5689 5690 5691 5692 5692 5693 5694 5695 5695 5695 5697 5699 5698 5697 5697 5699 5699 5699 5699 5699 5699 5699 5700 5700 5699 5699 5698 5698 5697 5696 5696 5695 5695 5694 5693 5692 5691 5689 5688 5686 5685 5683 5682 5680 5678 5677 5675 5673 5672 5670 5667 5665 5662 5659 5656 5654 5652 5650 5649 5648 5647 5645 5641 5639 5637 5635 5634
5670 5671 5671 5672 5674 5674 5675 5676 5677 5678 5679 5680 5681 5681 5682 5683 5683 5684 5685 5686 5686 5687 5687 5688 5689 5689 5689 5690 5692 5694 5693 5692 5693 5694 5694 5694 5694 5694 5694 5694 5693 5693 5693 5693 5692 5691 5690 5690 5689 5689 5688 5687 5686 5685 5684 5682 5680 5679 5677 5675 5673 5671 5670 5668 5666 5664 5662 5660 5657 5654 5651 5648 5645 5642 5640 5638 5637 5636 5636 5634 5630 5628 5626 5625 5623
5667 5667 5668 5669 5670 5671 5672 5672 5673 5674 5675 5676 5676 5677 5678 5678 5679 5680 5681 5681 5682 5682 5682 5683 5684 5684 5684 5685 5687 5688 5688 5687 5688 5688 5688 5688 5688 5688 5688 5688 5687 5687 5687 5686 5686 5685 5684 5684 5683 5682 5681 5680 5679 5678 5676 5675 5673 5671 5669 5667 5665 5662 5660 5659 5657 5654 5652 5649 5646 5644 5641 5638 5635 5632 5630 5627 5625 5623 5623 5623 5621 5618 5616 5615 5613
5663 5663 5664 5665 5666 5667 5668 5668 5669 5670 5671 5671 5672 5673 5673 5674 5674 5675 5676 5676 5677 5678 5678 5678 5679 5680 5680 5681 5682 5682 5682 5682 5682 5682 5682 5681 5681 5681 5681 5681 5681 5681 5681 5680 5680 5680 5679 5677 5676 5675 5674 5673 5671 5670 5669 5667 5665 5663 5661 5658 5656 5653 5651 5650 5647 5644 5641 5638 5635 5632 5629 5627 5625 5623 5620 5618 5615 5613 5612 5611 5610 5609 5607 5605 5604
5660 5660 5660 5660 5661 5662 5663 5664 5665 5666 5666 5667 5668 5669 5669 5670 5670 5670 5671 5672 5672 5673 5673 5674 5674 5675 5675 5675 5676 5676 5676 5676 5676 5675 5675 5675 5675 5675 5675 5675 5676 5675 5674 5674 5674 5673 5672 5671 5670 5668 5667 5665 5664 5662 5660 5659 5657 5655 5652 5649 5646 5643 5641 5640 5637 5633 5630 5628 5625 5623 5620 5617 5615 5613 5611 5608 5606 5604 5602 5601 5599 5599 5598 5596 5595
5656 5656 5656 5657 5657 5658 5659 5660 5660 5661 5662 5663 5663 5664 5665 5665 5665 5666 5666 5667 5667 5668 5668 5669 5669 5669 5670 5670 5670 5670 5670 5670 5670 5669 5669 5669 5669 5670 5670 5669 5669 5669 5668 5668 5667 5666 5665 5663 5662 5661 5659 5657 5655 5653 5651 5649 5647 5645 5643 5640 5636 5633 5631 5630 5627 5624 5621 5619 5616 5614 5611 5608 5606 5604 5602 5599 5597 5595 5593 5591 5589 5589 5587 5586 5585
5650 5651 5652 5652 5653 5654 5655 5656 5656 5657 5657 5658 5658 5659 5660 5660 5660 5661 5661 5662 5662 5662 5663 5663 5664 5664 5664 5664 5664 5664 5664 5665 5664 5664 5664 5664 5664 5664 5663 5663 5662 5662 5661 5661 5659 5658 5657 5655 5654 5652 5650 5648 5646 5644 5642 5640 5638 5635 5633 5630 5627 5624 5622 5620 5618 5615 5613 5610 5607 5605 5603 5600 5598 5596 5593 5591 5588 5586 5584 5582 5580 5578 5577 5576 5575
5645 5645 5646 5647 5648 5649 5650 5651 5651 5652 5652 5653 5654 5654 5655 5655 5655 5655 5656 5656 5656 5657 5658 5658 5658 5659 5659 5659 5659 5659 5659 5659 5658 5658 5658 5658 5658 5658 5657 5656 5656 5655 5654 5653 5652 5651 5649 5647 5645 5644 5642 5639 5637 5635 5632 5630 5628 5626 5624 5621 5619 5616 5614 5611 5609 5607 5605 5602 5599 5597 5595 5592 5590 5587 5585 5582 5580 5577 5575 5573 5570 5568 5567 5566 5565
5640 5640 5641 5642 5643 5643 5644 5645 5646 5646 5647 5648 5648 5649 5650 5650 5650 5650 5651 5651 5651 5652 5653 5653 5653 5654 5653 5653 5653 5653 5653 5653 5652 5652 5652 5652 5651 5651 5650 5650 5649 5647 5646 5645 5644 5643 5641 5639 5637 5635 5632 5630 5628 5626 5624 5622 5620 5618 5616 5613 5611 5608 5606 5604 5601 5599 5597 5594 5591 5589 5586 5583 5581 5578 5576 5573 5571 5568 5566 5564 5562 5560 5558 5557 5555
5634 5635 5636 5636 5637 5638 5639 5639 5640 5641 5642 5642 5643 5644 5644 5644 5645 5646 5646 5646 5646 5647 5647 5648 5649 5649 5648 5648 5648 5648 5648 5647 5646 5646 5646 5645 5644 5644 5643 5642 5642 5640 5638 5636 5635 5634 5633 5631 5628 5626 5624 5622 5620 5618 5616 5614 5612 5610 5608 5606 5604 5601 5599 5596 5594 5591 5589 5586 5583 5580 5577 5574 5572 5569 5567 5564 5562 5560 5558 5556 5554 5553 5551 5549 5547
5628 5629 5629 5630 5631 5632 5633 5633 5634 5635 5636 5637 5638 5638 5639 5639 5640 5640 5640 5640 5640 5641 5642 5642 5642 5642 5641 5641 5642 5642 5641 5641 5640 5639 5638 5638 5637 5636 5635 5634 5633 5632 5630 5628 5627 5625 5624 5622 5620 5618 5617 5614 5612 5611 5609 5607 5605 5603 5601 5599 5597 5594 5592 5589 5586 5584 5581 5578 5575 5572 5569 5566 5564 5561 5559 5557 5555 5553 5552 5550 5548 5547 5545 5542 5540
5622 5622 5623 5625 5625 5626 5627 5627 5628 5629 5630 5631 5632 5632 5633 5633 5634 5635 5635 5634 5634 5635 5637 5636 5635 5634 5635 5635 5635 5635 5634 5633 5632 5631 5631 5630 5629 5628 5627 5626 5625 5624 5622 5620 5619 5617 5616 5614 5613 5611 5610 5608 5606 5604 5602 5600 5598 5596 5594 5592 5590 5587 5585 5582 5579 5576 5573 5570 5567 5564 5562 5559 5557 5554 5552 5551 5549 5548 5547 5545 5544 5542 5539 5537 5534
5616 5616 5618 5619 5620 5620 5621 5622 5622 5624 5625 5626 5626 5627 5627 5627 5627 5628 5628 5628 5627 5629 5630 5629 5628 5628 5628 5628 5628 5628 5627 5625 5624 5624 5624 5623 5622 5621 5620 5619 5618 5617 5616 5614 5613 5611 5610 5608 5607 5605 5604 5602 5600 5598 5596 5594 5592 5590 5588 5586 5583 5581 5578 5575 5573 5569 5566 5563 5561 5558 5555 5553 5551 5549 5548 5546 5545 5543 5542 5541 5540 5538 5536 5533 5531
5610 5611 5612 5613 5614 5614 5615 5615 5616 5617 5618 5619 5620 5621 5621 5620 5621 5621 5622 5621 5621 5622 5623 5622 5622 5622 5622 5621 5621 5621 5620 5619 5618 5618 5617 5617 5616 5615 5614 5613 5612 5611 5610 5608 5607 5606 5604 5603 5601 5600 5598 5596 5594 5593 5591 5588 5586 5584 5582 5579 5577 5574 5572 5569 5566 5563 5560 5558 5555 5552 5550 5548 5546 5545 5544 5542 5541 5539 5538 5538 5537 5536 5534 5532 5530
5603 5604 5605 5606 5606 5607 5608 5608 5610 5611 5612 5612 5613 5614 5614 5614 5614 5615 5615 5615 5615 5616 5616 5616 5616 5616 5615 5615 5615 5615 5614 5614 5613 5612 5612 5611 5611 5610 5609 5608 5607 5606 5604 5603 5602 5600 5599 5598 5596 5594 5592 5590 5589 5587 5585 5582 5580 5578 5576 5573 5571 5568 5566 5563 5561 5558 5555 5552 5549 5547 5545 5544 5543 5542 5540 5539 5538 5536 5535 5535 5534 5534 5533 5532 5531
5596 5597 5597 5598 5599 5600 5600 5601 5603 5604 5605 5605 5606 5607 5608 5608 5608 5609 5609 5609 5609 5610 5610 5609 5609 5609 5609 5609 5609 5609 5608 5608 5608 5607 5607 5606 5605 5605 5604 5603 5602 5601 5600 5598 5597 5595 5594 5592 5591 5589 5587 5585 5583 5581 5579 5576 5574 5572 5570 5567 5565 5563 5561 5558 5556 5553 5550 5547 5545 5544 5542 5541 5540 5538 5537 5536 5535 5534 5533 5532 5532 5532 5531 5531 5530
5589 5590 5591 5591 5592 5593 5594 5595 5596 5597 5598 5598 5599 5600 5601 5602 5602 5602 5602 5603 5603 5604 5604 5603 5603 5604 5604 5604 5604 5604 5603 5603 5602 5602 5602 5601 5601 5600 5599 5598 5597 5596 5595 5594 5592 5591 5589 5587 5585 5583 5581 5579 5577 5575 5572 5570 5568 5566 5564 5562 5560 5558 5556 5554 5552 5549 5546 5544 5542 5541 5540 5539 5537 5536 5534 5533 5532 5531 5530 5530 5530 5529 5529 5529 5528
5583 5584 5585 5585 5586 5587 5588 5590 5590 5591 5591 5593 5594 5594 5595 5596 5596 5596 5596 5597 5598 5599 5598 5598 5598 5598 5599 5599 5599 5599 5599 5598 5598 5598 5598 5597 5597 5596 5595 5594 5593 5592 5590 5589 5588 5586 5584 5582 5580 5577 5575 5573 5571 5569 5566 5565 5563 5561 5559 5558 5556 5554 5553 5551 5548 5546 5544 5542 5541 5539 5538 5537 5535 5534 5533 5531 5530 5529 5528 5527 5527 5527 5527 5526 5526
5578 5579 5580 5580 5581 5582 5583 5584 5584 5585 5586 5587 5588 5589 5590 5590 5591 5591 5591 5592 5593 5593 5594 5594 5594 5594 5594 5595 5595 5595 5594 5594 5594 5594 5593 5593 5593 5592 5591 5590 5589 5588 5586 5584 5583 5581 5578 5576 5574 5572 5570 5568 5566 5564 5562 5560 5558 5557 5555 5554 5553 5551 5550 5548 5545 5543 5542 5540 5539 5538 5536 5535 5534 5532 5531 5530 5529 5528 5526 5526 5525 5525 5525 5525 5525
5574 5575 5575 5575 5575 5577 5578 5579 5579 5580 5581 5582 5583 5584 5585 5585 5586 5586 5587 5588 5588 5589 5589 5590 5590 5590 5591 5591 5591 5591 5590 5590 5590 5590 5590 5589 5589 5588 5587 5586 5585 5584 5582 5580 5578 5575 5573 5571 5569 5567 5565 5563 5561 5559 5558 5556 5555 5554 5552 5551 5550 5549 5547 5545 5543 5542 5540 5539 5537 5536 5535 5534 5533 5531 5530 5529 5528 5527 5526 5525 5525 5524 5524 5524 5524
5570 5570 5571 5571 5571 5572 5574 5575 5575 5575 5577 5578 5578 5579 5580 5580 5581 5582 5583 5583 5584 5585 5585 5586 5586 5586 5587 5587 5587 5587 5587 5587 5587 5587 5586 5586 5585 5585 5584 5583 5581 5580 5578 5575 5573 5571 5568 5566 5564 5563 5561 5559 5557 5556 5554 5553 5552 5551 5550 5549 5547 5546 5545 5543 5541 5540 5539 5537 5536 5535 5533 5532 5531 5530 5529 5528 5527 5526 5525 5524 5524 5523 5523 5523 5523
5565 5566 5567 5567 5567 5568 5569 5570 5570 5571 5573 5573 5574 5575 5576 5576 5577 5578 5578 5579 5580 5580 5581 5582 5582 5582 5583 5583 5583 5584 5584 5584 5584 5583 5583 5583 5582 5581 5580 5579 5577 5575 5573 5570 5568 5566 5564 5563 5561 5559 5557 5556 5554 5552 5551 5550 5549 5548 5547 5546 5545 5544 5542 5541 5539 5538 5537 5536 5535 5533 5532 5531 5530 5529 5528 5526 5525 5524 5524 5523 5522 5522 5522 5521 5521
5562 5562 5563 5563 5563 5564 5565 5566 5566 5567 5569 5569 5570 5571 5571 5572 5573 5574 5574 5575 5576 5577 5577 5578 5579 5579 5580 5580 5580 5581 5581 5581 5580 5580 5580 5579 5578 5577 5576 5574 5572 5570 5568 5566 5564 5562 5561 5559 5557 5556 5554 5552 5551 5549 5548 5547 5546 5545 5544 5543 5542 5541 5540 5538 5537 5536 5535 5534 5533 5532 5531 5529 5528 5527 5526 5525 5524 5523 5523 5522 5521 5521 5521 5520 5520
5558 5559 5559 5559 5560 5560 5561 5561 5562 5563 5564 5565 5566 5567 5567 5568 5569 5570 5571 5572 5572 5573 5574 5575 5576 5576 5577 5577 5577 5577 5577 5577 5577 5577 5576 5575 5574 5573 5572 5570 5568 5566 5564 5562 5560 5558 5557 5556 5554 5553 5551 5549 5548 5547 5545 5544 5543 5542 5541 5541 5540 5539 5537 5536 5535 5534 5532 5531 5531 5530 5529 5528 5527 5526 5525 5525 5524 5523 5522 5521 5520 5520 5519 5519 5519
5554 5555 5555 5555 5556 5556 5557 5558 5559 5560 5560 5561 5562 5563 5564 5565 5566 5567 5568 5568 5569 5570 5571 5572 5572 5573 5573 5574 5574 5574 5574 5574 5574 5573 5573 5572 5571 5569 5568 5566 5564 5562 5560 5558 5557 5555 5554 5553 5551 5550 5548 5547 5545 5544 5543 5541 5540 5539 5538 5538 5537 5536 5535 5534 5533 5531 5530 5529 5528 5528 5527 5526 5526 5525 5524 5523 5523 5522 5521 5520 5519 5519 5519 5518 5518